TimeCDT,TemperatureF,Dew PointF,Humidity,Sea Level PressureIn,VisibilityMPH,Wind Direction,Wind SpeedMPH,Gust SpeedMPH,PrecipitationIn,Events,Conditions,WindDirDegrees,DateUTC
12:15 AM,15.8,10.4,79,29.56,1.2,West,18.4,25.3,0.00,Snow,Light Snow,280,2013-03-19 05:15:00
1:54 AM,15.1,9.0,77,29.62,5.0,West,18.4,25.3,0.00,Snow,Light Snow,270,2013-03-19 06:54:00
2:54 AM,15.1,9.0,77,29.62,6.0,West,19.6,25.3,0.00,Snow,Light Snow,270,2013-03-19 07:54:00
3:54 AM,14.0,8.1,77,29.64,6.0,West,16.1,28.8,0.00,Snow,Light Snow,280,2013-03-19 08:54:00
4:54 AM,12.9,7.0,77,29.65,4.0,West,21.9,27.6,0.00,Snow,Light Snow,270,2013-03-19 09:54:00
5:25 AM,12.2,6.8,79,29.60,6.0,West,17.3,26.5,0.00,Snow,Light Snow,280,2013-03-19 10:25:00
5:54 AM,12.0,6.1,77,29.68,8.0,West,16.1,28.8,0.00,,Overcast,280,2013-03-19 10:54:00
6:54 AM,10.9,5.0,77,29.72,6.0,WNW,17.3,27.6,0.00,Snow,Light Snow,290,2013-03-19 11:54:00
7:54 AM,10.9,5.0,77,29.75,6.0,West,17.3,25.3,0.00,,Overcast,280,2013-03-19 12:54:00
8:54 AM,12.0,5.0,73,29.77,5.0,WNW,17.3,28.8,0.00,,Overcast,290,2013-03-19 13:54:00
9:54 AM,12.9,5.0,71,29.79,6.0,WNW,19.6,26.5,0.00,,Haze,290,2013-03-19 14:54:00
10:54 AM,14.0,6.1,71,29.81,6.0,West,23.0,32.2,0.00,,Overcast,280,2013-03-19 15:54:00
11:54 AM,18.0,8.1,65,29.83,9.0,West,19.6,27.6,0.00,,Scattered Clouds,280,2013-03-19 16:54:00
12:45 PM,19.4,8.6,63,29.77,5.0,West,24.2,35.7,0.00,,Partly Cloudy,280,2013-03-19 17:45:00
12:54 PM,19.9,8.1,60,29.85,4.0,West,26.5,34.5,0.00,Snow,Blowing Snow,270,2013-03-19 17:54:00
1:54 PM,21.9,9.0,58,29.86,4.0,West,26.5,34.5,0.00,Snow,Blowing Snow,270,2013-03-19 18:54:00
2:54 PM,23.0,9.0,55,29.87,10.0,West,21.9,31.1,N/A,,Clear,260,2013-03-19 19:54:00
3:54 PM,23.0,8.1,53,29.88,10.0,West,18.4,29.9,N/A,,Clear,260,2013-03-19 20:54:00
4:54 PM,23.0,7.0,50,29.91,10.0,West,18.4,26.5,N/A,,Clear,270,2013-03-19 21:54:00
5:54 PM,21.9,7.0,53,29.94,10.0,West,17.3,-,N/A,,Clear,270,2013-03-19 22:54:00
6:54 PM,19.9,5.0,52,29.96,10.0,West,16.1,-,N/A,,Clear,270,2013-03-19 23:54:00
7:54 PM,19.0,3.9,52,29.98,10.0,West,16.1,-,N/A,,Clear,270,2013-03-20 00:54:00
8:54 PM,18.0,3.9,54,29.99,10.0,West,18.4,26.5,N/A,,Clear,270,2013-03-20 01:54:00
9:54 PM,17.1,3.9,56,30.00,10.0,West,16.1,-,N/A,,Partly Cloudy,270,2013-03-20 02:54:00
10:54 PM,15.1,3.0,59,30.01,10.0,West,13.8,-,N/A,,Clear,270,2013-03-20 03:54:00
11:54 PM,12.9,1.9,62,30.01,10.0,West,12.7,-,N/A,,Clear,280,2013-03-20 04:54:00